Simultaneous Nadir Overpasses (SNOs) Predictions

Prediction of SNOs between NOAA-20 and AQUA Satellite Orbit:

Table of predicted SNOs for the next 14.0 days since TLE Epoch: 5/1/2021
Index Date (NOAA-20) Time (NOAA-20) Lat,Lon (NOAA-20) SZA (NOAA-20 ) Date (AQUA) Time (AQUA) Lat,Lon (AQUA) SZA (AQUA ) Distance(km) Time Diff (sec)
1 05/02/2021 05:56:32 75.65, -31.31 82.37 05/02/2021 05:56:53 75.66, -31.22 82.33 2.70 21
2 05/02/2021 06:46:49 -76.95, 140.68 99.26 05/02/2021 06:45:54 -76.95, 140.62 99.20 1.67 55
3 05/04/2021 21:22:58 -75.00, -84.83 97.63 05/04/2021 21:24:09 -75.00, -84.81 97.70 0.75 71
4 05/04/2021 22:13:12 76.40, 86.99 80.68 05/04/2021 22:13:06 76.39, 86.92 80.71 1.77 6
5 05/07/2021 13:39:45 -75.39, 32.08 98.83 05/07/2021 13:40:28 -75.39, 32.14 98.88 2.06 43
6 05/07/2021 14:30:01 76.67,-156.22 79.60 05/07/2021 14:29:27 76.67,-156.25 79.64 1.00 34
7 05/10/2021 05:56:33 -75.77, 149.04 99.99 05/10/2021 05:56:48 -75.78, 149.13 100.02 2.71 15
8 05/10/2021 06:46:50 76.98, -39.21 78.50 05/10/2021 06:45:48 76.98, -39.24 78.56 0.84 62
9 05/12/2021 21:22:54 75.25, 95.89 79.98 05/12/2021 21:23:58 75.25, 95.89 79.92 0.12 64



Historial Predications of SNOs between NOAA-20 and AQUA
